Regional Weather Roundup
Issued by NWS

Home | Current Version | Previous Version | Text Only | Print | Product List | Glossary Off
Versions: 1 2 3 4 5 6 7 8 9 10 11 12 13 14 15 16 17 18 19 20 21 22 23 24 25 26 27 28 29 30 31 32 33 34 35 36 37 38 39 40 41 42 43 44 45 46 47 48 49 50

226
ASUS43 KDMX 192006
RWRIA

WEATHER ROUNDUP FOR IOWA
NATIONAL WEATHER SERVICE DES MOINES IA
200 PM CST THU JAN 19 2017

NOTE: "FAIR" INDICATES FEW OR NO CLOUDS BELOW 12,000 FEET WITH NO
SIGNIFICANT WEATHER AND/OR OBSTRUCTIONS TO VISIBILITY.

* - THESE STATIONS ARE NOT NWS STATIONS...THUS NOT UNDER NWS
QUALITY CONTROL.  THEY ALSO DO NOT REPORT WEATHER SUCH
AS PRECIPITATION OR FOG.

IAZ001>003-012>014-020>022-031>034-043>046-192100-
   NORTHWEST IOWA

CITY           SKY/WX    TMP DP  RH WIND       PRES   REMARKS
CARROLL *      PTSUNNY   37  37 100 SE9       29.70F FOG     WCI  31
CHEROKEE *     CLOUDY    40  40  97 S6        29.68F FOG
DENISON *      PTSUNNY   43  41  93 S6        29.66F FOG
LE MARS *      CLOUDY    41  39  93 S12       29.67F
ORANGE CITY *  CLOUDY    39  39 100 S5        29.66F FOG
SHELDON *      CLOUDY    39  39 100 S12       29.65F FOG     WCI  32
SIOUX CITY     FOG       40  39  97 S10       29.67F VSB 1   WCI  33
SPENCER        CLOUDY    39  37  92 SE9       29.68F FOG     WCI  33
STORM LAKE *   CLOUDY    39  39 100 SE13      29.68F FOG     WCI  32
$$

IAZ055>058-069>071-079>083-090>094-192100-
   SOUTHWEST IOWA

CITY           SKY/WX    TMP DP  RH WIND       PRES   REMARKS
ATLANTIC *     FOG       41  41 100 SE5       29.70F VSB 1
CLARINDA *     CLOUDY    45  45 100 CALM      29.70F FOG
COUNCIL BLFS * CLOUDY    43  43 100 S6        29.67F FOG
CRESTON *      FOG       41  41 100 SE7       29.70F VSB<1/4
HARLAN  *      CLOUDY    43  43 100 SE6       29.71F FOG
LAMONI         FOG       43  43 100 CALM      29.70F VSB 1
RED OAK *      CLOUDY    45  43  93 MISG      29.68F
SHENANDOAH *   CLOUDY    45  43  93 SE6       29.68F
$$

IAZ047>049-059>061-072>074-084-192100-
   CENTRAL IOWA

CITY           SKY/WX    TMP DP  RH WIND       PRES   REMARKS
AMES           CLOUDY    38  38 100 E5        29.74F FOG     WCI  34
ANKENY *       FOG       37  37 100 SE9       29.74F VSB 3/4 WCI  31
BOONE *        FOG       37  37 100 E7        29.72F VSB 1/2 WCI  32
CHARITON *     CLOUDY    39  39 100 NE7       29.72F FOG     WCI  34
DES MOINES     DRZL/FOG  39  38  96 SE8       29.73F VSB 1/2 WCI  33
GRINNELL*      LGT RAIN  36  35  99 E10       29.75F VSB 1   WCI  28
KNOXVILLE *    CLOUDY    37  37 100 E7        29.72F FOG     WCI  32
MARSHALLTOWN   CLOUDY    36  36 100 E12       29.75F FOG     WCI  28
NEWTON *       CLOUDY    37  37 100 E10       29.74F FOG     WCI  30
PELLA *        LGT RAIN  37  37  99 E6        29.75F WCI  32
PERRY *        FOG       40  39  97 E7        29.72F VSB 1
$$

IAZ004>006-015-016-023>025-035-036-192100-
   NORTH CENTRAL IOWA

CITY           SKY/WX    TMP DP  RH WIND       PRES   REMARKS
ALGONA *       PTSUNNY   39  37  93 SE12      29.72F WCI  32
CLARION *      CLOUDY    37  37 100 SE10      29.73F WCI  30
ESTHERVILLE    MOSUNNY   38  37  97 S14       29.68F FOG     WCI  30
FORT DODGE *   CLOUDY    39  36  87 SE7       29.73F WCI  34
MASON CITY     CLOUDY    32  32 100 SE9       29.77F FOG     WCI  24
FOREST CITY *  CLOUDY    36  34  93 SE7       29.74F WCI  30
WEBSTER CITY * CLOUDY    37  37 100 SE8       29.72F WCI  31
IOWA FALLS *   CLOUDY    36  35  96 E6        29.75F FOG     WCI  32
$$

IAZ007>011-017>019-026>030-037>042-050>054-066-192100-
   NORTHEAST IOWA

CITY           SKY/WX    TMP DP  RH WIND       PRES   REMARKS
CEDAR RAPIDS   LGT RAIN  37  37 100 E10       29.77F FOG     WCI  30
CHARLES CITY * CLOUDY    36  36 100 SE8       29.79F FOG     WCI  29
CLINTON *      LGT RAIN  38  36  92 SE7       29.85F FOG     WCI  33
DECORAH *      CLOUDY    34  32  93 SE9       29.79F FOG     WCI  26
DUBUQUE        CLOUDY    37  35  92 SE6       29.83F FOG     WCI  32
MONTICELLO *   LGT RAIN  37  37 100 S9        29.82F WCI  31
OELWEIN *      LGT RAIN  34  34 100 E7        29.79F WCI  28
WATERLOO       LGT RAIN  36  34  92 E5        29.79F FOG     WCI  32
$$

IAZ064-065-067-068-078-192100-
   EAST CENTRAL IOWA

CITY           SKY/WX    TMP DP  RH WIND       PRES   REMARKS
DAVENPORT      CLOUDY    39  37  92 E6        29.84F FOG     WCI  35
IOWA CITY      LGT RAIN  39  37  93 E7        29.81F FOG     WCI  34
MUSCATINE *    FOG       39  37  93 E7        29.82F VSB 1   WCI  34
QUAD CITIES    CLOUDY    41  37  86 E7        29.83F FOG
$$

IAZ062-063-075>077-085>089-095>099-192100-
   SOUTHEAST IOWA

CITY           SKY/WX    TMP DP  RH WIND       PRES   REMARKS
BURLINGTON     FOG       39  39 100 E10       29.77F VSB 1   WCI  32
FAIRFIELD *    FOG       39  39 100 E9        29.76F VSB 3/4 WCI  33
FORT MADISON * FOG       39  39 100 E7        29.77F VSB 1/2 WCI  34
KEOKUK *       FOG       43  43 100 E9        29.76F VSB 3/4
OSKALOOSA *    RAIN      37  37  98 E8        29.75F VSB 3/4 WCI  31
OTTUMWA        LGT RAIN  39  38  96 E9        29.74F VSB 1   WCI  33
WASHINGTON *   FOG       39  39 100 E8        29.78F VSB 1/2 WCI  34
$$

ABBREVIATIONS USED IN REMARKS
   TC - TEMPERATURES IN CELSIUS
  WCI - WIND CHILL INDEX
   HX - HEAT INDEX
  VSB - VISIBILITY
$$





USA.gov is the U.S. government's official web portal to all federal, state and local government web resources and services.